Location: Leiter
(44.7178°N, 106.2687°W)
Time: 23:15:45
(UTC+00:00)

CUBESAT XI-V - Pass Details

Date: 07 July 2022
Orbit: 668 x 690 km, 98.1° (Epoch: 16 August)

Event Time Altitude Azimuth Distance (km) Brightness Sun altitude
Exits shadow 09:50:14 19° 239° (WSW) 1,604 ? -13.4°
Maximum altitude 09:51:48 22° 267° (W) 1,460 ? -13.3°
Drops below altitude 10° 09:55:22 10° 318° (NW) 2,104 ? -12.9°
Sets 09:58:04 0° 334° (NNW) 3,022 ? -12.6°
